Weather History for KNYC - April, 2012

Change the Weather History Date:

Sunday, April 29, 2012

  Actual Average Record
Temperature  
Mean Temperature 54 °F 58 °F  
Max Temperature 63 °F 66 °F 89 °F (1974)
Min Temperature 44 °F 49 °F 32 °F (1874)
Degree Days  
Heating Degree Days 11 8  
Month to date heating degree days 306 362  
Since 1 July heating degree days 3610 4584  
Cooling Degree Days 0 1  
Month to date cooling degree days 20 8  
Year to date cooling degree days 24 9  
Growing Degree Days 3 (Base 50)    
Moisture  
Dew Point 21 °F    
Average Humidity 35    
Maximum Humidity 53    
Minimum Humidity 16    
Precipitation  
Precipitation 0.00 in 0.14 in 0.91 in (1909)
Month to date precipitation 3.56 4.37  
Year to date precipitation 9.12 15.47  
Snow  
Snow 0.00 in 0.00 in T in (1909)
Month to date snowfall 0.0 0.6  
Since 1 July snowfall 7.4 25.8  
Snow Depth 0.00 in    
Sea Level Pressure  
Sea Level Pressure 30.15 in    
Wind  
Wind Speed 6 mph (NW)    
Max Wind Speed 16 mph    
Max Gust Speed 27 mph    
Visibility 10 miles    
Events      
T = Trace of Precipitation, MM = Missing Value Source: NWS Daily Summary

Daily Weather History Graph

Daily Weather History Graph

Search for Another Location

Airport or City:

Trip Planner

Search our weather history database for the weather conditions in past years. The results will help you decide how hot, cold, wet, or windy it might be!

Date:

Astronomy

Apr. 29, 2012 Rise Set
Actual Time 5:56 AM EDT 7:50 PM EDT
Civil Twilight 5:26 AM EDT 8:20 PM EDT
Nautical Twilight 4:50 AM EDT 8:56 PM EDT
Astronomical Twilight 4:11 AM EDT 9:35 PM EDT
Moon 12:37 PM EDT (4/29) 1:48 AM EDT (4/29)
Length of Visible Light 14h 53m
Length of Day
13h 54m
First Quarter, 53% of the Moon is Illuminated
Apr 29
First Quarter
May 5
Full
May 12
Last Quarter
May 20
New
May 28
First Quarter

Hourly Weather History & Observations

Time (EDT) Temp. Windchill Dew Point Humidity Pressure Visibility Wind Dir Wind Speed Gust Speed Precip Events Conditions
12:51 AM 51.1 °F - 30.0 °F 44% 30.12 in 10.0 mi Variable 4.6 mph - N/A   Clear
1:51 AM 50.0 °F - 30.9 °F 48% 30.12 in 10.0 mi West 5.8 mph - N/A   Clear
2:51 AM 48.0 °F - 30.9 °F 52% 30.11 in 10.0 mi West 4.6 mph - N/A   Clear
3:51 AM 46.9 °F - 30.9 °F 54% 30.12 in 10.0 mi Variable 4.6 mph - N/A   Clear
4:51 AM 46.0 °F 44.8 °F 27.0 °F 47% 30.13 in 10.0 mi Variable 3.5 mph - N/A   Clear
5:51 AM 44.1 °F 42.5 °F 26.1 °F 49% 30.15 in 10.0 mi Variable 3.5 mph - N/A   Clear
6:51 AM 45.0 °F 42.6 °F 24.1 °F 44% 30.18 in 10.0 mi Variable 4.6 mph - N/A   Clear
7:51 AM 45.0 °F 42.6 °F 24.1 °F 44% 30.20 in 10.0 mi Variable 4.6 mph - N/A   Clear
8:51 AM 46.9 °F - 21.9 °F 37% 30.19 in 10.0 mi WNW 6.9 mph - N/A   Clear
9:51 AM 50.0 °F - 21.9 °F 33% 30.19 in 10.0 mi Variable 6.9 mph - N/A   Clear
10:51 AM 54.0 °F - 19.0 °F 25% 30.19 in 10.0 mi Variable 6.9 mph - N/A   Clear
11:51 AM 57.9 °F - 21.0 °F 24% 30.16 in 10.0 mi Variable 6.9 mph - N/A   Clear
12:51 PM 60.1 °F - 17.1 °F 19% 30.11 in 10.0 mi North - - N/A   Clear
1:51 PM 61.0 °F - 16.0 °F 17% 30.09 in 10.0 mi North - - N/A   Clear
2:51 PM 62.1 °F - 17.1 °F 18% 30.08 in 10.0 mi Variable 5.8 mph 19.6 mph N/A   Clear
3:51 PM 62.1 °F - 16.0 °F 17% 30.06 in 10.0 mi NNW 11.5 mph 20.7 mph N/A   Clear
4:51 PM 62.1 °F - 17.1 °F 18% 30.07 in 10.0 mi Variable 6.9 mph 16.1 mph N/A   Clear
5:51 PM 61.0 °F - 17.1 °F 18% 30.09 in 10.0 mi North - - N/A   Clear
6:51 PM 60.1 °F - 16.0 °F 18% 30.10 in 10.0 mi North - - N/A   Clear
7:51 PM 57.0 °F - 18.0 °F 22% 30.14 in 10.0 mi Variable 6.9 mph - N/A   Clear
8:51 PM 55.9 °F - 15.1 °F 20% 30.18 in 10.0 mi North - - N/A   Clear
9:51 PM 53.1 °F - 17.1 °F 24% 30.22 in 10.0 mi Variable 5.8 mph - N/A   Clear
10:51 PM 51.1 °F - 17.1 °F 26% 30.24 in 10.0 mi Variable 4.6 mph - N/A   Clear
11:51 PM 50.0 °F - 17.1 °F 27% 30.25 in 10.0 mi North 8.1 mph - N/A   Clear